Wind_Speed
42 43 44 45 45 45 45 45 45 45 46 46 47 47 48 49 49 49 49 49 48 48 48 47 46 45 46 46 45 44 44 45 44 43 44 45 44 43 43 43 44 43 43
40 41 43 43 43 44 44 44 44 45 45 46 46 46 47 47 47 47 46 46 46 47 47 47 45 44 45 45 45 46 46 46 45 44 43 43 43 43 43 43 43 43 43
37 39 40 42 42 43 43 43 43 43 44 44 44 45 45 45 45 46 45 45 45 45 45 44 44 43 43 44 44 44 45 45 45 44 42 41 41 41 41 41 42 42 42
35 37 38 38 39 39 39 40 41 42 43 44 44 44 44 45 45 45 44 44 44 44 43 43 43 43 43 42 42 42 42 43 42 41 40 39 39 39 39 40 40 41 41
34 35 36 36 36 37 37 39 40 41 42 42 42 43 43 43 43 43 43 43 43 43 42 42 42 43 43 42 41 40 40 39 39 38 38 38 38 38 39 40 40 40 40
33 33 34 35 35 35 36 37 39 40 40 41 40 41 41 41 42 42 42 42 41 41 41 42 42 42 42 42 41 39 38 38 37 37 37 37 37 38 38 39 38 37 37
31 32 32 32 33 34 35 35 36 37 39 39 40 40 40 40 41 41 41 41 41 41 41 40 40 41 41 40 39 38 37 37 37 37 36 37 37 37 36 36 36 36 35
30 30 30 29 31 32 33 33 34 34 35 36 37 38 38 39 39 39 39 40 40 40 40 40 39 38 38 38 38 39 39 38 37 36 36 36 36 36 36 35 35 35 35
28 28 28 29 31 31 31 31 31 31 31 32 33 35 36 37 37 38 38 38 38 38 38 37 37 37 37 37 38 38 38 37 36 35 35 36 36 36 35 35 34 33 33
24 25 26 27 28 29 28 29 29 29 29 30 31 32 33 34 35 35 36 35 35 35 36 36 36 35 35 36 36 35 35 36 35 35 35 34 34 34 33 32 32 31 31
23 24 25 25 26 26 26 28 28 29 29 29 30 31 32 32 32 32 32 32 32 33 34 34 33 33 33 33 34 34 34 34 34 33 33 33 32 32 30 30 30 30 29
22 23 24 24 25 25 25 25 26 27 27 27 28 28 29 31 31 31 31 31 31 32 32 32 32 31 32 33 33 32 32 31 31 31 31 30 29 28 28 28 28 27 27
23 23 23 24 23 23 23 23 24 24 25 25 25 26 28 29 30 31 31 31 31 31 30 30 30 30 30 31 30 30 30 30 29 29 28 27 26 26 25 25 25 24 23
23 23 23 22 21 22 22 22 23 23 23 23 24 25 26 27 28 29 29 29 29 28 27 27 28 28 29 28 28 28 28 27 26 25 25 24 24 24 23 23 22 21 21
23 23 23 22 22 23 23 23 23 22 23 23 24 25 26 26 26 27 26 25 24 24 24 24 25 25 25 25 26 25 23 22 22 22 22 23 22 22 22 21 20 19 18
23 22 23 23 23 23 23 23 23 23 23 24 25 25 26 26 25 24 24 23 23 23 23 23 23 24 24 23 23 22 21 20 20 20 21 22 22 21 20 19 18 17 16
22 22 22 22 22 22 22 22 23 23 23 24 24 24 24 23 22 22 22 22 22 23 23 23 22 22 23 22 21 19 19 20 20 20 20 20 19 19 17 17 17 16 15
21 21 22 22 22 22 22 23 23 23 23 23 23 22 22 21 21 21 21 22 22 22 22 21 21 21 21 20 20 19 19 18 18 19 18 18 17 17 16 15 15 15 14
20 20 20 20 21 21 21 22 22 22 22 21 21 21 20 20 21 21 21 21 21 20 20 20 19 19 19 19 19 18 18 17 16 16 17 17 16 16 15 14 14 14 13
19 19 19 19 19 20 20 20 21 21 20 20 20 20 20 20 20 19 19 19 19 19 18 18 18 18 18 18 17 16 16 16 16 16 16 16 15 15 15 14 13 12 12
18 18 18 18 19 19 19 20 19 19 19 18 19 19 19 19 19 18 18 18 17 17 16 16 16 16 16 16 16 16 15 16 15 15 15 15 15 15 14 13 12 12 11
17 17 18 18 19 19 19 19 18 18 17 17 18 17 17 17 16 16 16 15 15 14 14 14 14 15 15 15 15 15 14 14 14 15 15 15 14 13 13 13 12 11 11
17 17 17 18 18 18 18 18 17 16 16 16 15 15 14 14 14 13 13 13 12 12 11 11 12 12 12 13 13 13 13 13 13 13 13 13 13 12 12 11 11 11 11
16 16 17 17 17 17 17 16 16 16 15 15 14 13 13 13 12 12 11 11 11 10 10 10 10 10 11 11 11 11 11 12 12 11 12 11 11 11 11 11 11 11 10
16 16 16 16 16 15 15 14 14 14 14 14 13 12 12 11 11 10 10 10 10 9 9 10 10 10 10 10 10 10 10 11 11 10 10 10 10 9 9 10 10 9 9
15 15 15 14 14 13 13 13 13 13 13 12 11 11 11 10 10 10 9 9 9 9 9 9 9 10 10 10 10 10 10 10 10 10 10 10 9 9 9 9 8 7 7
Wind_Direction
264 263 261 261 261 260 259 260 261 261 260 260 262 262 262 263 265 266 267 268 269 270 270 270 270 271 273 274 275 276 277 278 279 280 281 280 280 281 281 282 283 284 285
266 263 262 262 262 262 262 260 261 261 261 261 262 262 263 264 265 266 267 269 270 270 271 271 271 272 274 275 276 276 277 279 279 280 280 279 279 280 282 283 285 285 286
266 265 264 264 263 262 261 259 259 260 261 263 263 263 263 264 265 265 267 268 269 270 270 271 272 273 275 275 276 277 278 279 279 279 278 278 279 281 282 284 286 287 287
268 266 265 262 263 262 261 260 260 260 260 262 263 262 263 264 265 265 266 268 268 269 270 271 272 274 274 275 276 277 278 278 278 278 277 278 279 281 283 286 287 288 288
270 268 265 264 264 264 262 261 261 260 261 261 262 262 262 263 263 263 265 267 267 267 268 269 271 273 274 275 276 277 278 278 278 277 277 278 279 281 283 285 286 288 288
271 270 268 268 266 266 265 264 263 261 260 261 262 262 262 262 263 264 265 267 267 267 268 269 270 272 273 275 276 277 277 278 278 278 278 278 280 281 283 285 286 286 286
272 271 270 269 268 267 267 267 265 263 261 261 262 262 262 264 264 265 266 267 267 267 268 270 271 272 273 274 274 275 277 278 278 280 280 279 280 281 283 283 284 285 286
273 271 271 271 271 269 269 267 267 266 264 263 264 264 264 265 266 266 267 268 267 267 269 269 271 273 274 273 273 273 275 277 279 279 280 279 279 280 281 283 284 285 287
273 271 271 273 272 270 270 269 268 268 267 267 267 266 266 266 266 267 268 268 268 268 269 269 271 273 274 273 273 274 275 277 278 278 278 278 278 279 282 284 284 284 285
276 275 276 277 276 273 271 272 271 269 270 270 269 268 266 265 266 268 269 269 270 270 270 270 271 273 274 273 273 274 275 276 277 277 277 277 279 281 282 283 283 283 284
281 279 280 280 280 277 274 273 271 271 271 271 270 268 266 266 268 269 270 272 272 272 272 271 270 270 271 272 273 273 274 274 274 276 276 277 279 281 282 283 283 284 283
284 283 283 283 282 280 277 274 274 273 273 273 270 268 269 270 270 271 272 272 272 273 273 271 268 268 269 271 272 273 273 274 274 275 275 277 278 279 280 281 281 283 284
286 284 283 283 282 281 279 278 278 279 278 275 273 272 273 272 272 273 273 273 272 273 272 268 266 266 267 269 270 270 271 273 272 271 272 273 275 277 278 279 279 281 283
288 285 285 283 282 283 283 283 282 281 279 277 278 278 278 277 276 276 275 274 272 270 268 266 266 267 266 266 267 268 268 269 269 267 267 269 273 276 277 276 278 281 283
287 284 283 283 283 284 285 285 284 283 283 282 281 281 281 280 278 276 274 273 271 269 268 268 269 269 268 268 269 267 265 265 266 266 266 268 271 274 274 276 278 281 283
285 284 283 283 284 285 284 284 285 286 285 285 285 284 283 282 279 276 273 272 270 269 269 269 269 269 269 270 269 266 264 265 267 267 268 270 272 271 271 273 275 276 280
284 283 283 283 284 283 283 284 285 285 286 287 286 285 284 281 277 275 274 272 270 269 269 269 268 269 268 266 264 263 264 265 265 266 267 268 269 268 268 270 272 272 275
283 283 283 284 284 283 284 285 286 287 288 287 286 285 283 281 279 277 275 272 269 269 269 268 268 268 265 262 262 263 264 264 263 262 263 263 264 264 265 269 270 270 272
285 286 286 286 286 287 287 287 287 287 288 288 286 284 282 281 280 278 275 272 269 268 267 267 267 265 260 259 260 261 260 259 259 257 256 258 261 262 262 264 266 269 272
288 289 289 290 291 292 291 290 290 290 289 288 286 284 281 279 278 277 274 270 267 266 265 264 262 259 256 256 258 257 255 254 254 252 253 254 255 257 260 262 265 270 272
290 290 290 292 293 294 293 292 292 290 288 286 287 286 282 280 278 275 272 269 267 266 264 262 259 255 252 253 255 253 252 251 250 249 251 250 251 254 259 258 263 269 272
290 290 291 292 295 296 294 292 289 287 286 287 288 287 284 282 280 276 271 266 265 265 264 262 259 255 252 252 252 252 251 249 249 249 250 250 251 256 258 256 259 266 271
291 290 292 293 295 296 295 292 288 286 287 287 288 286 284 281 277 273 267 262 260 258 260 261 257 254 254 253 252 252 250 247 248 250 251 251 253 254 257 259 262 269 273
294 294 295 295 295 295 294 290 287 286 287 287 287 284 281 278 273 267 262 258 253 250 252 252 251 251 251 251 251 252 250 247 247 248 247 250 251 253 258 260 263 268 271
296 297 298 297 295 295 295 292 287 285 286 286 285 280 276 272 268 263 258 252 248 247 247 247 247 248 248 248 248 247 247 243 241 244 245 248 252 255 256 257 262 266 267
298 299 300 300 297 295 295 293 289 287 287 286 283 277 270 266 263 258 252 249 249 248 247 248 247 247 247 245 243 241 241 241 243 242 241 244 246 248 251 255 256 258 257
Height
5596 5597 5599 5601 5603 5605 5607 5609 5611 5612 5614 5615 5617 5618 5619 5620 5621 5621 5621 5621 5621 5621 5621 5621 5621 5620 5620 5619 5618 5617 5617 5616 5616 5617 5616 5614 5612 5610 5608 5606 5605 5603 5601
5585 5586 5587 5588 5590 5592 5594 5596 5598 5600 5601 5603 5604 5605 5606 5607 5608 5608 5609 5609 5609 5609 5609 5609 5609 5608 5608 5607 5607 5606 5605 5604 5603 5604 5604 5602 5601 5599 5597 5595 5594 5592 5590
5576 5575 5576 5577 5578 5580 5582 5584 5586 5587 5589 5590 5592 5593 5594 5595 5595 5596 5597 5597 5597 5597 5597 5597 5597 5597 5597 5596 5595 5594 5593 5592 5591 5592 5592 5591 5590 5588 5586 5585 5583 5581 5579
5566 5565 5566 5566 5567 5568 5570 5572 5574 5575 5577 5578 5579 5580 5582 5583 5584 5584 5585 5585 5586 5586 5586 5586 5586 5586 5586 5585 5584 5583 5582 5581 5580 5580 5580 5580 5579 5577 5576 5575 5573 5571 5569
5556 5555 5556 5556 5557 5557 5559 5561 5562 5563 5565 5566 5567 5569 5570 5571 5572 5573 5574 5574 5574 5575 5575 5575 5575 5575 5574 5574 5574 5573 5572 5571 5570 5570 5570 5569 5568 5567 5566 5565 5563 5561 5559
5547 5546 5546 5546 5547 5547 5548 5550 5551 5552 5553 5555 5556 5558 5559 5560 5561 5562 5563 5563 5563 5564 5564 5565 5565 5564 5564 5563 5562 5562 5562 5561 5561 5560 5560 5559 5558 5557 5556 5554 5553 5552 5550
5538 5538 5538 5537 5538 5538 5539 5539 5540 5541 5542 5544 5546 5547 5548 5549 5550 5551 5551 5551 5552 5553 5554 5554 5554 5554 5553 5553 5553 5552 5552 5551 5551 5551 5550 5549 5549 5548 5546 5545 5543 5542 5541
5530 5530 5529 5529 5529 5529 5530 5530 5531 5532 5533 5535 5536 5537 5538 5539 5540 5540 5540 5541 5542 5543 5543 5544 5544 5543 5543 5543 5543 5543 5542 5542 5541 5541 5541 5540 5539 5538 5536 5535 5534 5533 5531
5523 5523 5522 5522 5521 5521 5522 5522 5523 5523 5524 5525 5526 5527 5528 5530 5530 5530 5530 5531 5532 5532 5533 5533 5533 5533 5533 5533 5533 5533 5533 5532 5532 5531 5531 5530 5529 5529 5527 5526 5525 5524 5522
5516 5516 5515 5514 5514 5513 5513 5514 5514 5515 5516 5516 5517 5518 5519 5520 5521 5521 5521 5521 5522 5522 5523 5523 5523 5523 5523 5523 5523 5523 5523 5523 5523 5522 5522 5521 5520 5519 5518 5517 5516 5515 5514
5510 5510 5509 5508 5507 5506 5506 5506 5506 5507 5507 5508 5508 5509 5510 5511 5511 5511 5511 5511 5512 5512 5513 5513 5513 5513 5514 5514 5514 5514 5514 5514 5514 5513 5513 5512 5511 5511 5510 5509 5508 5507 5506
5504 5504 5503 5502 5501 5500 5499 5499 5499 5499 5500 5500 5500 5501 5501 5502 5502 5502 5502 5502 5502 5502 5503 5503 5504 5504 5504 5505 5505 5505 5505 5505 5504 5504 5504 5504 5503 5503 5502 5501 5501 5500 5498
5498 5497 5496 5495 5494 5494 5493 5493 5493 5493 5492 5493 5493 5493 5493 5493 5493 5493 5492 5492 5492 5492 5493 5494 5494 5495 5495 5495 5496 5496 5495 5496 5496 5496 5496 5496 5496 5496 5496 5495 5494 5494 5493
5492 5491 5490 5489 5489 5488 5487 5487 5486 5486 5486 5486 5485 5485 5485 5485 5484 5483 5483 5482 5482 5483 5484 5484 5485 5486 5486 5487 5487 5487 5487 5488 5488 5489 5490 5490 5490 5490 5490 5490 5489 5488 5488
5486 5485 5484 5483 5483 5482 5481 5480 5480 5479 5479 5478 5478 5477 5477 5476 5476 5475 5474 5474 5474 5475 5476 5477 5477 5478 5478 5479 5479 5480 5480 5481 5482 5483 5484 5484 5484 5485 5485 5484 5484 5483 5483
5480 5479 5478 5477 5477 5476 5475 5474 5473 5472 5472 5471 5470 5469 5468 5468 5467 5466 5466 5467 5467 5468 5468 5469 5470 5470 5471 5472 5472 5473 5474 5475 5476 5477 5478 5478 5479 5479 5479 5480 5479 5479 5478
5474 5473 5472 5471 5470 5469 5468 5468 5466 5466 5464 5464 5462 5461 5460 5459 5459 5459 5459 5459 5460 5460 5461 5462 5463 5463 5464 5465 5466 5466 5468 5469 5470 5471 5472 5473 5473 5474 5474 5475 5474 5474 5473
5468 5467 5466 5465 5464 5463 5462 5461 5460 5459 5458 5456 5455 5454 5453 5452 5451 5451 5451 5451 5452 5453 5454 5455 5455 5456 5457 5458 5459 5460 5462 5463 5464 5465 5466 5467 5468 5469 5470 5470 5470 5470 5469
5462 5461 5460 5459 5458 5457 5455 5454 5453 5452 5451 5450 5448 5447 5446 5445 5445 5444 5444 5444 5445 5446 5447 5448 5449 5450 5451 5452 5453 5454 5456 5457 5458 5460 5461 5462 5464 5464 5465 5466 5466 5466 5465
5457 5456 5454 5453 5452 5451 5449 5448 5447 5445 5444 5443 5442 5441 5440 5439 5439 5438 5438 5438 5438 5439 5440 5442 5443 5444 5445 5446 5447 5448 5450 5452 5453 5455 5456 5458 5459 5460 5461 5461 5462 5462 5462
5452 5451 5449 5448 5447 5445 5444 5442 5441 5440 5438 5437 5436 5435 5434 5433 5433 5432 5432 5432 5433 5434 5435 5436 5437 5438 5439 5440 5441 5443 5445 5447 5448 5450 5452 5453 5454 5455 5456 5457 5458 5458 5458
5447 5445 5444 5443 5442 5440 5438 5437 5436 5434 5433 5432 5431 5429 5428 5428 5427 5427 5427 5427 5428 5429 5429 5430 5432 5433 5434 5436 5437 5439 5440 5442 5444 5445 5447 5449 5450 5451 5452 5453 5454 5454 5455
5442 5441 5439 5438 5437 5435 5433 5431 5430 5429 5428 5427 5426 5424 5424 5423 5423 5422 5423 5423 5424 5424 5425 5426 5427 5429 5430 5431 5433 5434 5436 5438 5439 5441 5443 5444 5446 5447 5448 5449 5450 5451 5451
5437 5436 5435 5433 5431 5430 5428 5427 5425 5424 5423 5422 5421 5420 5420 5419 5419 5419 5419 5419 5420 5421 5422 5423 5424 5425 5426 5428 5429 5430 5432 5433 5435 5437 5439 5440 5442 5443 5445 5446 5447 5447 5448
5433 5431 5430 5428 5427 5425 5424 5422 5421 5420 5419 5418 5418 5417 5416 5416 5416 5416 5416 5416 5417 5418 5419 5420 5421 5422 5423 5424 5426 5427 5429 5430 5432 5433 5435 5437 5439 5440 5441 5442 5443 5444 5444
5428 5427 5426 5424 5423 5421 5420 5419 5418 5417 5416 5415 5414 5413 5413 5413 5413 5413 5413 5414 5415 5415 5416 5417 5418 5419 5420 5421 5423 5424 5426 5427 5429 5431 5432 5434 5436 5437 5438 5439 5440 5441 5442